Skip Page Navigation
NASA JPL Caltech
NASA Logo - Jet Propulsion Laboratory + View the NASA Portal
+ Center for Near-Earth Object Studies
JPL Home Earth Solar System Stars & Galaxies Technology
JPL Solar System Dynamics
BODIES ORBITS EPHEMERIDES TOOLS PHYSICAL DATA DISCOVERY FAQ SITE MAP
IMPORTANT: The SSD Announcement email list is now available. Major changes are coming in the near future, including possible hostname and/or URL changes. To be notified of such changes, subscribe to this email list.

Please visit this page for more details.


JPL Small-Body Database Browser
Search: [ help ]  
56934 (2000 RE41)
Classification: Main-belt Asteroid          SPK-ID: 2056934
Ephemeris | Orbit Diagram | Orbital Elements | Mission Design | Physical Parameters | Discovery Circumstances | Close-Approach Data ]

[ show orbit diagram ]
Orbital Elements at Epoch 2458600.5 (2019-Apr-27.0) TDB
Reference: JPL 22 (heliocentric ecliptic J2000)
 Element Value Uncertainty (1-sigma)   Units 
e .02222878798145584 3.8968e-08  
a 2.990989824856556 2.2256e-08 au
q 2.924503746185128 1.2417e-07 au
i 8.721457473153356 4.189e-06 deg
node 248.176954421019 2.7932e-05 deg
peri 356.8688607502548 0.00010183 deg
M 336.3381757803137 9.7274e-05 deg
tp 2458724.684259849187
(2019-Aug-29.18425985)
0.0005103 TDB
period 1889.386597188588
5.17
2.1088e-05
5.774e-08
d
yr
n .1905380299276394 2.1267e-09 deg/d
Q 3.057475903527984 2.2751e-08 au
  Orbit Determination Parameters
   # obs. used (total)      1103  
   data-arc span      7714 days (21.12 yr)  
   first obs. used      1998-03-25  
   last obs. used      2019-05-08  
   planetary ephem.      DE431  
   SB-pert. ephem.      SB431-N16  
   condition code      0  
   norm. resid. RMS      .54389  
   source      ORB  
   producer      Otto Matic  
   solution date      2019-May-30 05:10:27  

Additional Information
 Earth MOID = 1.91055 au 
 Jupiter MOID = 1.96114 au 
 T_jup = 3.238 
[ show covariance matrix ]

Ephemeris | Orbit Diagram | Orbital Elements | Mission Design | Physical Parameters | Discovery Circumstances | Close-Approach Data ]

Physical Parameter Table
Parameter Symbol Value Units Sigma Reference Notes
absolute magnitude H 14.0   n/a MPO302373  
diameter diameter 6.028 km 0.285 urn:nasa:pds:neowise_diameters_albedos::2.0[mainbelt] (http://adsabs.harvard.edu/abs/2011ApJ...741...68M)  
geometric albedo albedo 0.161   0.036 urn:nasa:pds:neowise_diameters_albedos::2.0[mainbelt] (http://adsabs.harvard.edu/abs/2011ApJ...741...68M)  

56934 (2000 RE41)          Discovered 2000-Sep-03 by LINEAR at Socorro
Reference: 20030318/Numbers.arcLast Updated: 2004-04-19

[ show close-approach data ]
Alternate Designations
 2000 RE41 = 1998 HT130 
Ephemeris | Orbit Diagram | Orbital Elements | Mission Design | Physical Parameters | Discovery Circumstances | Close-Approach Data ]
ABOUT SSD CREDITS/AWARDS PRIVACY/COPYRIGHT GLOSSARY LINKS
FirstGov 2020-Jan-28 23:58 UT
(server date/time)  
NASA Home Page
Site Manager:   Ryan S. Park
Webmaster  Alan B. Chamberlin